QPF
0.02 0.02 0.02 0.02 0.02 0.02 0.03 0.04 0.04 0.03 0.03 0.03 0.05 0.07 0.09 0.11 0.11 0.11 0.10 0.09 0.07 0.07 0.06 0.06 0.06 0.05 0.06 0.06 0.07 0.06 0.04 0.03 0.03 0.02 0.02 0.03 0.04 0.04
0.01 0.02 0.02 0.02 0.02 0.01 0.02 0.02 0.03 0.04 0.04 0.03 0.04 0.05 0.09 0.10 0.10 0.11 0.13 0.12 0.07 0.05 0.05 0.05 0.05 0.04 0.05 0.05 0.05 0.05 0.04 0.03 0.02 0.02 0.02 0.03 0.03 0.03
0.01 0.01 0.02 0.03 0.03 0.02 0.02 0.02 0.03 0.04 0.04 0.03 0.03 0.04 0.07 0.09 0.10 0.09 0.09 0.11 0.10 0.07 0.05 0.04 0.04 0.04 0.03 0.04 0.04 0.03 0.03 0.03 0.03 0.02 0.02 0.03 0.03 0.02
0.02 0.02 0.02 0.03 0.04 0.03 0.02 0.02 0.02 0.03 0.03 0.04 0.03 0.04 0.05 0.06 0.08 0.08 0.08 0.08 0.07 0.08 0.07 0.05 0.04 0.03 0.03 0.02 0.03 0.02 0.01 0.01 0.02 0.02 0.01 0.01 0.02 0.02
0.02 0.02 0.03 0.05 0.05 0.04 0.03 0.02 0.02 0.03 0.03 0.02 0.03 0.04 0.08 0.08 0.09 0.10 0.08 0.06 0.06 0.06 0.07 0.06 0.05 0.05 0.04 0.02 0.02 0.02 0.01 0.01 0.01 0.01 0.02 0.02 0.01 0.01
0.03 0.03 0.03 0.03 0.04 0.04 0.04 0.04 0.03 0.03 0.03 0.03 0.03 0.03 0.06 0.10 0.11 0.10 0.09 0.06 0.05 0.05 0.06 0.07 0.06 0.05 0.04 0.03 0.02 0.02 0.02 0.01 0.01 0.01 0.02 0.02 0.02 0.02
0.04 0.04 0.04 0.05 0.05 0.05 0.05 0.05 0.05 0.04 0.04 0.05 0.04 0.03 0.04 0.05 0.07 0.07 0.08 0.07 0.06 0.05 0.06 0.07 0.07 0.05 0.04 0.04 0.03 0.02 0.02 0.02 0.02 0.02 0.02 0.02 0.03 0.04
0.04 0.05 0.06 0.06 0.06 0.05 0.05 0.05 0.05 0.04 0.05 0.06 0.06 0.05 0.05 0.05 0.04 0.04 0.05 0.06 0.05 0.05 0.06 0.07 0.09 0.09 0.06 0.05 0.04 0.03 0.02 0.02 0.02 0.02 0.03 0.03 0.02 0.03
0.05 0.05 0.04 0.04 0.05 0.06 0.07 0.08 0.08 0.09 0.08 0.07 0.06 0.04 0.04 0.04 0.04 0.04 0.03 0.02 0.03 0.03 0.04 0.05 0.05 0.06 0.06 0.06 0.06 0.05 0.03 0.03 0.03 0.02 0.03 0.04 0.03 0.03
0.04 0.04 0.04 0.04 0.06 0.07 0.08 0.08 0.08 0.08 0.07 0.04 0.02 0.02 0.03 0.03 0.04 0.04 0.04 0.04 0.03 0.04 0.04 0.05 0.04 0.04 0.04 0.05 0.06 0.06 0.05 0.04 0.04 0.04 0.04 0.05 0.05 0.05
0.03 0.03 0.03 0.02 0.03 0.04 0.03 0.03 0.03 0.04 0.04 0.04 0.02 0.02 0.02 0.03 0.03 0.05 0.05 0.06 0.05 0.05 0.04 0.04 0.04 0.04 0.05 0.05 0.05 0.05 0.05 0.05 0.05 0.05 0.05 0.06 0.07 0.06
0.03 0.04 0.03 0.02 0.01 0.02 0.02 0.02 0.01 0.01 0.02 0.02 0.02 0.02 0.02 0.03 0.03 0.04 0.04 0.05 0.06 0.05 0.03 0.04 0.05 0.04 0.05 0.06 0.05 0.05 0.04 0.05 0.05 0.05 0.05 0.05 0.06 0.06
0.02 0.02 0.01 0.01 0.01 0.02 0.02 0.03 0.02 0.02 0.02 0.02 0.03 0.04 0.05 0.05 0.04 0.03 0.04 0.05 0.06 0.05 0.03 0.04 0.05 0.06 0.05 0.04 0.05 0.05 0.05 0.05 0.04 0.04 0.04 0.04 0.05 0.05
0.02 0.02 0.01 0.01 0.01 0.01 0.01 0.02 0.02 0.02 0.02 0.04 0.06 0.07 0.06 0.05 0.05 0.05 0.05 0.05 0.04 0.04 0.03 0.03 0.05 0.06 0.06 0.05 0.05 0.04 0.04 0.04 0.04 0.03 0.03 0.04 0.04 0.06
0.02 0.02 0.02 0.01 0.01 0.01 0.01 0.02 0.02 0.02 0.04 0.06 0.07 0.06 0.06 0.05 0.05 0.04 0.03 0.04 0.03 0.03 0.03 0.03 0.04 0.05 0.07 0.08 0.07 0.07 0.06 0.04 0.04 0.03 0.03 0.03 0.03 0.04
0.01 0.02 0.02 0.01 0.01 0.02 0.02 0.03 0.04 0.06 0.07 0.05 0.04 0.05 0.06 0.04 0.05 0.04 0.04 0.04 0.04 0.03 0.03 0.03 0.04 0.05 0.05 0.05 0.06 0.07 0.07 0.07 0.06 0.05 0.05 0.05 0.05 0.05
0.01 0.01 0.01 0.01 0.01 0.01 0.01 0.02 0.02 0.03 0.04 0.03 0.02 0.02 0.03 0.03 0.03 0.04 0.04 0.04 0.04 0.04 0.03 0.04 0.04 0.04 0.04 0.04 0.04 0.04 0.05 0.05 0.05 0.06 0.07 0.08 0.08 0.08
0.01 0.01 0.01 0.01 0.01 0.02 0.02 0.02 0.01 0.01 0.01 0.02 0.02 0.02 0.02 0.02 0.03 0.04 0.04 0.04 0.04 0.03 0.03 0.04 0.05 0.04 0.03 0.02 0.03 0.03 0.03 0.03 0.03 0.03 0.04 0.06 0.08 0.08
0.00 0.00 0.01 0.01 0.02 0.02 0.02 0.01 0.01 0.01 0.01 0.01 0.01 0.02 0.02 0.02 0.03 0.04 0.04 0.04 0.04 0.04 0.03 0.03 0.04 0.04 0.03 0.02 0.02 0.03 0.03 0.02 0.02 0.02 0.03 0.03 0.05 0.07
0.00 0.00 0.01 0.01 0.01 0.01 0.01 0.01 0.01 0.02 0.03 0.03 0.03 0.02 0.02 0.02 0.03 0.04 0.05 0.04 0.04 0.04 0.04 0.04 0.04 0.04 0.03 0.03 0.02 0.03 0.04 0.04 0.04 0.04 0.04 0.04 0.05 0.06
0.00 0.01 0.01 0.01 0.01 0.01 0.01 0.01 0.01 0.01 0.01 0.01 0.01 0.01 0.02 0.02 0.02 0.03 0.04 0.05 0.04 0.03 0.03 0.04 0.05 0.04 0.03 0.03 0.03 0.02 0.02 0.03 0.03 0.04 0.04 0.05 0.05 0.04
0.01 0.01 0.00 0.00 0.00 0.01 0.01 0.02 0.01 0.01 0.01 0.01 0.01 0.01 0.01 0.01 0.02 0.02 0.02 0.03 0.04 0.04 0.04 0.03 0.02 0.02 0.02 0.03 0.03 0.03 0.02 0.02 0.02 0.02 0.02 0.02 0.03 0.03
0.01 0.00 0.00 0.01 0.01 0.01 0.02 0.02 0.02 0.01 0.01 0.01 0.01 0.01 0.01 0.01 0.02 0.02 0.02 0.03 0.03 0.03 0.04 0.03 0.02 0.02 0.03 0.03 0.03 0.02 0.02 0.02 0.02 0.02 0.01 0.01 0.02 0.02
MSLP
1016.84 1017.13 1017.42 1017.70 1017.93 1018.08 1018.14 1018.10 1017.97 1017.77 1017.51 1017.21 1016.90 1016.58 1016.26 1015.95 1015.67 1015.43 1015.24 1015.11 1015.05 1015.07 1015.14 1015.25 1015.38 1015.48 1015.54 1015.53 1015.47 1015.34 1015.19 1015.02 1014.88 1014.77 1014.72 1014.71 1014.74 1014.80
1016.60 1016.84 1017.09 1017.34 1017.55 1017.70 1017.79 1017.80 1017.75 1017.62 1017.44 1017.22 1016.94 1016.64 1016.30 1015.95 1015.60 1015.26 1014.98 1014.75 1014.62 1014.57 1014.60 1014.69 1014.82 1014.95 1015.05 1015.10 1015.09 1015.02 1014.91 1014.79 1014.67 1014.58 1014.54 1014.53 1014.56 1014.60
1016.35 1016.54 1016.75 1016.95 1017.14 1017.29 1017.40 1017.46 1017.47 1017.43 1017.34 1017.19 1016.98 1016.72 1016.39 1016.02 1015.62 1015.21 1014.84 1014.53 1014.30 1014.16 1014.13 1014.17 1014.27 1014.38 1014.49 1014.56 1014.58 1014.56 1014.50 1014.42 1014.35 1014.30 1014.28 1014.30 1014.35 1014.40
1016.12 1016.27 1016.43 1016.59 1016.74 1016.88 1017.00 1017.09 1017.16 1017.19 1017.18 1017.11 1016.97 1016.76 1016.47 1016.10 1015.69 1015.25 1014.81 1014.42 1014.11 1013.89 1013.76 1013.73 1013.76 1013.82 1013.90 1013.95 1013.98 1013.97 1013.95 1013.91 1013.89 1013.89 1013.92 1013.98 1014.07 1014.15
1015.93 1016.03 1016.14 1016.26 1016.37 1016.48 1016.59 1016.69 1016.79 1016.87 1016.92 1016.92 1016.86 1016.70 1016.46 1016.14 1015.74 1015.29 1014.84 1014.40 1014.02 1013.73 1013.52 1013.39 1013.33 1013.31 1013.31 1013.32 1013.31 1013.29 1013.27 1013.26 1013.27 1013.32 1013.41 1013.53 1013.67 1013.81
1015.74 1015.81 1015.88 1015.94 1016.01 1016.09 1016.17 1016.26 1016.36 1016.46 1016.54 1016.59 1016.58 1016.49 1016.31 1016.04 1015.69 1015.28 1014.84 1014.40 1013.99 1013.64 1013.36 1013.14 1012.98 1012.86 1012.77 1012.69 1012.62 1012.55 1012.51 1012.50 1012.53 1012.62 1012.76 1012.94 1013.14 1013.34
1015.51 1015.55 1015.58 1015.61 1015.64 1015.67 1015.72 1015.78 1015.85 1015.94 1016.03 1016.10 1016.12 1016.09 1015.97 1015.77 1015.49 1015.15 1014.76 1014.35 1013.95 1013.58 1013.25 1012.96 1012.71 1012.49 1012.29 1012.11 1011.94 1011.81 1011.72 1011.68 1011.71 1011.81 1011.98 1012.21 1012.46 1012.72
1015.18 1015.20 1015.22 1015.22 1015.21 1015.21 1015.21 1015.23 1015.27 1015.33 1015.40 1015.46 1015.50 1015.50 1015.44 1015.31 1015.11 1014.85 1014.54 1014.20 1013.84 1013.48 1013.14 1012.80 1012.48 1012.17 1011.87 1011.59 1011.33 1011.12 1010.96 1010.87 1010.87 1010.97 1011.14 1011.39 1011.68 1011.98
1014.72 1014.74 1014.75 1014.75 1014.73 1014.70 1014.67 1014.65 1014.64 1014.66 1014.68 1014.72 1014.75 1014.77 1014.74 1014.67 1014.55 1014.38 1014.16 1013.90 1013.60 1013.29 1012.96 1012.61 1012.25 1011.88 1011.51 1011.15 1010.81 1010.51 1010.28 1010.14 1010.09 1010.15 1010.31 1010.55 1010.85 1011.17
1014.13 1014.16 1014.19 1014.19 1014.18 1014.14 1014.10 1014.04 1014.00 1013.96 1013.95 1013.94 1013.95 1013.96 1013.95 1013.92 1013.86 1013.76 1013.62 1013.44 1013.22 1012.97 1012.67 1012.35 1011.98 1011.59 1011.19 1010.78 1010.38 1010.03 1009.74 1009.54 1009.44 1009.45 1009.57 1009.77 1010.04 1010.35
1013.45 1013.51 1013.56 1013.60 1013.60 1013.58 1013.53 1013.46 1013.38 1013.30 1013.23 1013.18 1013.15 1013.13 1013.12 1013.10 1013.07 1013.02 1012.95 1012.84 1012.69 1012.50 1012.26 1011.97 1011.64 1011.27 1010.87 1010.45 1010.04 1009.66 1009.34 1009.10 1008.95 1008.90 1008.96 1009.11 1009.33 1009.60
1012.75 1012.85 1012.94 1013.01 1013.04 1013.04 1012.99 1012.91 1012.80 1012.68 1012.57 1012.47 1012.39 1012.34 1012.30 1012.27 1012.25 1012.22 1012.18 1012.11 1012.02 1011.88 1011.70 1011.47 1011.20 1010.87 1010.52 1010.14 1009.75 1009.39 1009.06 1008.80 1008.62 1008.53 1008.53 1008.61 1008.76 1008.96
1012.12 1012.25 1012.37 1012.47 1012.53 1012.53 1012.49 1012.39 1012.26 1012.11 1011.96 1011.81 1011.68 1011.58 1011.51 1011.45 1011.41 1011.38 1011.35 1011.30 1011.24 1011.15 1011.02 1010.85 1010.65 1010.40 1010.11 1009.80 1009.48 1009.16 1008.87 1008.62 1008.42 1008.30 1008.24 1008.25 1008.32 1008.44
1011.60 1011.75 1011.89 1012.00 1012.07 1012.06 1012.00 1011.89 1011.73 1011.54 1011.35 1011.17 1011.00 1010.85 1010.74 1010.65 1010.59 1010.53 1010.49 1010.45 1010.40 1010.33 1010.25 1010.14 1010.00 1009.83 1009.64 1009.41 1009.17 1008.93 1008.69 1008.47 1008.29 1008.14 1008.04 1007.99 1007.98 1008.01
1011.22 1011.37 1011.51 1011.60 1011.63 1011.60 1011.50 1011.35 1011.16 1010.94 1010.71 1010.50 1010.30 1010.13 1009.99 1009.87 1009.78 1009.71 1009.64 1009.59 1009.54 1009.49 1009.44 1009.37 1009.30 1009.20 1009.09 1008.96 1008.81 1008.64 1008.47 1008.29 1008.13 1007.98 1007.85 1007.74 1007.67 1007.62
1010.94 1011.07 1011.17 1011.21 1011.19 1011.10 1010.95 1010.75 1010.51 1010.26 1010.01 1009.78 1009.57 1009.39 1009.24 1009.12 1009.02 1008.93 1008.86 1008.79 1008.74 1008.69 1008.65 1008.62 1008.58 1008.54 1008.50 1008.43 1008.36 1008.26 1008.14 1008.01 1007.87 1007.72 1007.57 1007.44 1007.31 1007.20
1010.71 1010.79 1010.83 1010.79 1010.69 1010.53 1010.31 1010.05 1009.78 1009.50 1009.25 1009.02 1008.83 1008.66 1008.53 1008.42 1008.33 1008.25 1008.17 1008.10 1008.04 1007.99 1007.95 1007.92 1007.90 1007.89 1007.88 1007.85 1007.82 1007.76 1007.68 1007.58 1007.45 1007.31 1007.16 1007.00 1006.84 1006.69
1010.43 1010.46 1010.42 1010.30 1010.11 1009.87 1009.58 1009.28 1008.98 1008.70 1008.46 1008.26 1008.10 1007.98 1007.89 1007.82 1007.76 1007.70 1007.64 1007.57 1007.50 1007.44 1007.39 1007.34 1007.31 1007.28 1007.26 1007.24 1007.21 1007.15 1007.08 1006.98 1006.86 1006.71 1006.55 1006.39 1006.22 1006.06
1010.05 1010.01 1009.90 1009.71 1009.45 1009.15 1008.82 1008.49 1008.19 1007.92 1007.71 1007.56 1007.46 1007.40 1007.37 1007.35 1007.33 1007.30 1007.26 1007.20 1007.13 1007.04 1006.96 1006.88 1006.81 1006.74 1006.67 1006.61 1006.54 1006.45 1006.35 1006.23 1006.09 1005.94 1005.78 1005.62 1005.46 1005.31
1009.53 1009.45 1009.28 1009.04 1008.74 1008.41 1008.07 1007.75 1007.47 1007.24 1007.09 1006.99 1006.96 1006.96 1006.99 1007.03 1007.05 1007.05 1007.03 1006.97 1006.88 1006.77 1006.65 1006.52 1006.38 1006.25 1006.11 1005.98 1005.84 1005.69 1005.54 1005.38 1005.22 1005.05 1004.90 1004.75 1004.61 1004.48
1008.88 1008.77 1008.59 1008.33 1008.04 1007.72 1007.41 1007.13 1006.90 1006.74 1006.64 1006.61 1006.63 1006.69 1006.77 1006.84 1006.89 1006.90 1006.88 1006.81 1006.70 1006.56 1006.39 1006.19 1005.99 1005.78 1005.56 1005.34 1005.12 1004.90 1004.69 1004.48 1004.29 1004.12 1003.97 1003.84 1003.74 1003.66
1008.14 1008.03 1007.86 1007.65 1007.39 1007.13 1006.89 1006.68 1006.52 1006.43 1006.39 1006.41 1006.48 1006.57 1006.66 1006.74 1006.78 1006.79 1006.75 1006.65 1006.51 1006.32 1006.10 1005.85 1005.57 1005.29 1005.00 1004.70 1004.40 1004.12 1003.85 1003.61 1003.40 1003.22 1003.08 1002.99 1002.93 1002.90
1007.37 1007.30 1007.18 1007.03 1006.86 1006.68 1006.53 1006.41 1006.34 1006.31 1006.32 1006.38 1006.45 1006.53 1006.61 1006.65 1006.66 1006.63 1006.54 1006.40 1006.21 1005.98 1005.71 1005.41 1005.09 1004.75 1004.40 1004.05 1003.71 1003.38 1003.08 1002.81 1002.59 1002.43 1002.32 1002.26 1002.25 1002.27
Thickness
5642 5641 5640 5639 5639 5639 5638 5637 5634 5632 5634 5640 5644 5649 5651 5652 5652 5653 5654 5654 5655 5655 5655 5655 5656 5656 5656 5656 5656 5656 5655 5655 5654 5654 5654 5654 5654 5654
5637 5636 5635 5634 5633 5633 5633 5632 5631 5629 5627 5632 5636 5640 5643 5645 5645 5646 5647 5648 5648 5648 5649 5649 5650 5650 5650 5651 5651 5650 5650 5650 5649 5650 5650 5650 5650 5650
5633 5631 5630 5629 5627 5627 5626 5626 5625 5623 5622 5625 5628 5632 5634 5636 5638 5638 5639 5639 5640 5642 5643 5643 5644 5644 5643 5644 5644 5644 5644 5644 5644 5644 5645 5645 5645 5646
5628 5626 5625 5624 5622 5621 5621 5620 5619 5619 5617 5617 5620 5623 5626 5629 5630 5630 5632 5633 5633 5635 5636 5636 5636 5636 5636 5637 5637 5637 5637 5637 5637 5638 5638 5639 5640 5640
5624 5622 5620 5618 5617 5616 5615 5614 5613 5614 5612 5611 5612 5615 5617 5620 5621 5623 5625 5624 5626 5627 5628 5629 5629 5630 5629 5629 5629 5630 5630 5631 5631 5631 5632 5633 5634 5635
5620 5619 5617 5615 5614 5612 5611 5609 5608 5607 5605 5604 5605 5607 5609 5611 5612 5613 5614 5615 5617 5619 5620 5621 5622 5622 5622 5622 5623 5623 5624 5624 5624 5625 5626 5627 5627 5628
5616 5615 5613 5612 5611 5609 5608 5605 5603 5601 5599 5598 5599 5600 5601 5602 5604 5606 5606 5607 5608 5610 5611 5613 5613 5614 5614 5615 5616 5617 5618 5618 5619 5620 5620 5621 5622 5623
5611 5610 5609 5607 5606 5605 5604 5602 5600 5597 5595 5594 5594 5594 5596 5597 5597 5598 5598 5597 5598 5603 5602 5604 5605 5606 5607 5609 5611 5611 5612 5613 5614 5614 5615 5615 5616 5617
5607 5606 5605 5604 5601 5599 5598 5597 5596 5595 5594 5592 5591 5591 5592 5594 5593 5592 5592 5592 5594 5597 5594 5596 5598 5598 5601 5603 5605 5606 5606 5607 5608 5609 5609 5609 5610 5611
5604 5601 5599 5597 5597 5594 5593 5591 5590 5590 5591 5590 5590 5591 5591 5591 5590 5589 5588 5588 5589 5590 5589 5588 5591 5592 5596 5597 5598 5600 5601 5602 5602 5603 5603 5604 5604 5605
5599 5597 5595 5593 5592 5590 5587 5585 5585 5585 5587 5586 5586 5587 5587 5587 5586 5584 5582 5581 5581 5584 5585 5583 5584 5585 5587 5589 5592 5594 5595 5596 5596 5597 5597 5598 5598 5598
5594 5593 5591 5589 5588 5586 5583 5580 5579 5579 5580 5580 5580 5581 5582 5582 5581 5579 5578 5576 5576 5577 5580 5579 5578 5577 5578 5582 5585 5587 5587 5589 5590 5591 5591 5591 5591 5590
5589 5588 5587 5585 5584 5582 5580 5577 5576 5575 5574 5574 5574 5574 5575 5576 5576 5576 5575 5574 5573 5573 5575 5574 5572 5571 5571 5572 5576 5579 5580 5581 5582 5583 5584 5585 5585 5584
5586 5585 5583 5582 5580 5578 5576 5574 5573 5571 5568 5567 5567 5567 5568 5569 5571 5571 5571 5571 5571 5570 5571 5570 5568 5567 5565 5565 5567 5570 5572 5574 5575 5577 5578 5578 5578 5578
5583 5582 5580 5577 5575 5573 5572 5570 5567 5564 5562 5561 5561 5561 5562 5562 5563 5564 5565 5565 5565 5565 5566 5565 5564 5563 5561 5560 5561 5562 5564 5566 5568 5570 5570 5571 5572 5572
5580 5577 5575 5573 5571 5568 5566 5564 5562 5559 5557 5555 5555 5556 5556 5555 5555 5556 5556 5557 5556 5557 5559 5560 5560 5558 5556 5556 5556 5557 5558 5559 5562 5563 5564 5565 5566 5567
5575 5571 5569 5566 5563 5561 5559 5558 5556 5554 5552 5551 5549 5549 5549 5549 5548 5548 5548 5547 5547 5548 5549 5551 5553 5553 5552 5552 5551 5552 5553 5554 5556 5557 5556 5557 5559 5560
5568 5564 5561 5559 5556 5555 5553 5551 5550 5548 5547 5545 5544 5542 5542 5542 5542 5542 5541 5540 5541 5542 5543 5544 5544 5544 5544 5545 5546 5547 5548 5548 5549 5549 5550 5549 5550 5552
5563 5559 5557 5554 5552 5549 5547 5545 5544 5543 5541 5539 5538 5537 5537 5536 5535 5535 5535 5534 5535 5535 5537 5537 5537 5537 5537 5538 5540 5541 5541 5542 5541 5541 5542 5542 5544 5545
5558 5555 5552 5550 5547 5544 5542 5540 5538 5537 5535 5533 5532 5532 5531 5531 5530 5529 5529 5529 5529 5530 5531 5532 5531 5532 5531 5531 5532 5533 5534 5535 5535 5535 5535 5535 5536 5537
5555 5551 5548 5546 5543 5540 5537 5535 5533 5531 5529 5528 5527 5527 5526 5525 5524 5524 5524 5523 5523 5524 5525 5526 5527 5527 5527 5526 5524 5525 5527 5528 5529 5529 5529 5528 5528 5528
5551 5547 5544 5541 5539 5536 5533 5530 5528 5526 5524 5523 5522 5521 5521 5520 5520 5519 5519 5519 5519 5519 5520 5521 5522 5522 5521 5520 5519 5519 5520 5521 5522 5523 5523 5524 5523 5523
5547 5544 5541 5537 5534 5531 5528 5526 5524 5521 5519 5518 5517 5516 5516 5515 5515 5515 5516 5516 5516 5516 5517 5516 5516 5516 5516 5515 5514 5513 5514 5514 5514 5515 5515 5517 5519 5520